Kamikawa Maru — JG5687 — position and weather

sailwx.info

Track history (hours):
 
Tides and Currents Weather Stations Pressure Air Temp Water Temp Dewpoint Dewpoint Depression Visibility Wind Speed Wind Dir Waves Ship Positions

Kamikawa Maru

Last reported at 2014-Aug-19 19:33 UTC. Time now 2014-Aug-22 01:58 UTC.
Position N 36°35' E 141°04'.

Length 162 m; draft 6.8 m.

Type: Cargo ship. MMSI: 431101012.

Date/timePositionNaut miles runAvg speedWind from/ knotsBaromVisibWave heightAir tempDewpointWater temp
2014-Aug-19 19:33N 36°35' E 141°04'1918.8
2014-Aug-19 18:32N 36°16' E 141°02'3718.9
2014-Aug-19 16:33N 35°39' E 140°54'1919.3
2014-Aug-19 15:34N 35°22' E 140°42'2219.6
2014-Aug-19 14:27N 35°06' E 140°24'1920.9
2014-Aug-19 13:33N 34°56' E 140°05'1717.3
2014-Aug-19 12:33N 34°57' E 139°44'1817.7
2014-Aug-19 11:33N 35°14' E 139°46'1312.7
2014-Aug-19 10:33N 35°27' E 139°47'1111.2
2014-Aug-19 09:33N 35°38' E 139°46'0 0.1
2014-Aug-19 08:29N 35°38' E 139°46'0 0.1
2014-Aug-19 07:33N 35°38' E 139°46'0 0.0
2014-Aug-19 06:30N 35°38' E 139°46'0 0.0
2014-Aug-19 05:20N 35°38' E 139°46'0 0.1
2014-Aug-19 04:30N 35°38' E 139°46'0 0.0
2014-Aug-19 03:33N 35°38' E 139°46'0 0.0
2014-Aug-19 02:20N 35°38' E 139°46'0 0.0
2014-Aug-19 01:27N 35°38' E 139°46'0 0.1
2014-Aug-19 00:30N 35°38' E 139°46'0 0.1
2014-Aug-18 23:34N 35°38' E 139°46'1010.2
2014-Aug-18 22:33N 35°29' E 139°52'1312.6
2014-Aug-18 21:33N 35°18' E 139°45'1313.3
2014-Aug-18 20:33N 35°05' E 139°44'1817.9
2014-Aug-18 19:33N 34°54' E 139°27'1918.4
2014-Aug-18 18:32N 34°40' E 139°12'3417.3
2014-Aug-18 16:33N 34°28' E 138°32'3 0.1
2014-Aug-17 09:25N 34°31' E 138°31'1719.8
2014-Aug-17 08:33N 34°33' E 138°52'1818.6
2014-Aug-17 07:33N 34°43' E 139°10'1818.5
2014-Aug-17 06:33N 34°56' E 139°26'1918.9
2014-Aug-17 05:33N 35°08' E 139°44'1313.1
2014-Aug-17 04:33N 35°21' E 139°42'1515.0
2014-Aug-17 03:33N 35°36' E 139°47'3 2.3
2014-Aug-17 02:22N 35°38' E 139°46'0 0.1
2014-Aug-17 01:31N 35°38' E 139°46'0 0.0
2014-Aug-17 00:28N 35°38' E 139°46'0 0.1
2014-Aug-16 23:31N 35°38' E 139°46'0 0.2
2014-Aug-16 22:33N 35°38' E 139°46'1010.0
2014-Aug-16 21:33N 35°29' E 139°52'1211.9
2014-Aug-16 20:34N 35°19' E 139°44'1111.3
2014-Aug-16 19:33N 35°08' E 139°46'1616.1
2014-Aug-16 18:32N 34°52' E 139°45'1616.8
2014-Aug-16 17:33N 34°54' E 140°05'2017.8
2014-Aug-16 16:26N 35°04' E 140°26'2015.7
2014-Aug-16 15:09N 35°20' E 140°41'1117.0
2014-Aug-16 14:32N 35°29' E 140°47'1918.0
2014-Aug-16 13:29N 35°46' E 140°58'1819.2
2014-Aug-16 12:33N 36°04' E 141°00'  
2014-Aug-12 15:06N 35°30' E 140°49'1119.3
2014-Aug-12 14:33N 35°21' E 140°42'2120.9
2014-Aug-12 13:32N 35°06' E 140°24'2020.8
2014-Aug-12 12:33N 34°56' E 140°02'1515.4
2014-Aug-12 11:33N 34°59' E 139°43'1716.9
2014-Aug-12 10:33N 35°15' E 139°46'1312.9
2014-Aug-12 09:33N 35°28' E 139°49'10 9.8
2014-Aug-12 08:31N 35°38' E 139°46'0 0.0
2014-Aug-12 07:31N 35°38' E 139°46'0 0.0
2014-Aug-12 06:31N 35°38' E 139°46'0 0.0
2014-Aug-12 05:31N 35°38' E 139°46'0 0.0
2014-Aug-12 04:31N 35°38' E 139°46'0 0.0
2014-Aug-12 03:33N 35°38' E 139°46'10 9.8
2014-Aug-12 02:34N 35°29' E 139°52'1413.7
2014-Aug-12 01:34N 35°17' E 139°46'1313.4
2014-Aug-12 00:33N 35°04' E 139°43'2019.9
2014-Aug-11 23:33N 34°51' E 139°24'5 0.2
2014-Aug-10 22:05N 34°49' E 139°18'1218.9
2014-Aug-10 21:28N 34°57' E 139°28'1617.8
2014-Aug-10 20:33N 35°08' E 139°43'1212.4
2014-Aug-10 19:34N 35°20' E 139°42'1514.8
2014-Aug-10 18:34N 35°34' E 139°49'5 4.8
2014-Aug-10 17:30N 35°38' E 139°46'0 0.0
2014-Aug-10 16:30N 35°38' E 139°46'0 0.0
2014-Aug-10 15:18N 35°38' E 139°46'0 0.0
2014-Aug-10 14:24N 35°38' E 139°46'0 0.0
2014-Aug-10 13:12N 35°38' E 139°46'0 0.0
2014-Aug-10 11:18N 35°38' E 139°46'0 0.1
2014-Aug-10 10:30N 35°38' E 139°46'0 0.0
2014-Aug-10 09:30N 35°38' E 139°46'0 0.0
2014-Aug-10 08:24N 35°38' E 139°46'0 0.0
2014-Aug-10 07:30N 35°38' E 139°46'0 0.0
2014-Aug-10 06:24N 35°38' E 139°46'0 0.0
2014-Aug-10 05:21N 35°38' E 139°46'0 0.0
2014-Aug-10 04:30N 35°38' E 139°46'0 0.0
2014-Aug-10 03:33N 35°38' E 139°46'0 0.1
2014-Aug-10 02:33N 35°38' E 139°46'0 0.0
2014-Aug-10 01:30N 35°38' E 139°46'0 0.0
2014-Aug-10 00:24N 35°38' E 139°46'0 0.1
2014-Aug-09 23:33N 35°38' E 139°46'0 0.1
2014-Aug-09 22:33N 35°38' E 139°46'1110.8
2014-Aug-09 21:33N 35°29' E 139°53'0 0.1
2014-Aug-09 20:33N 35°29' E 139°53'  
Track history (hours):
 
Tides and Currents Weather Stations Pressure Air Temp Water Temp Dewpoint Dewpoint Depression Visibility Wind Speed Wind Dir Waves Ship Positions

Kamikawa Maru

Last reported at 2014-Aug-19 19:33 UTC. Time now 2014-Aug-22 01:58 UTC.
Position N 36°35' E 141°04'.

Length 162 m; draft 6.8 m.

Type: Cargo ship. MMSI: 431101012.

Date/timePositionNaut miles runAvg speedWind from/ knotsBaromVisibWave heightAir tempDewpointWater temp
2014-Aug-19 19:33N 36°35' E 141°04'1918.8
2014-Aug-19 18:32N 36°16' E 141°02'3718.9
2014-Aug-19 16:33N 35°39' E 140°54'1919.3
2014-Aug-19 15:34N 35°22' E 140°42'2219.6
2014-Aug-19 14:27N 35°06' E 140°24'1920.9
2014-Aug-19 13:33N 34°56' E 140°05'1717.3
2014-Aug-19 12:33N 34°57' E 139°44'1817.7
2014-Aug-19 11:33N 35°14' E 139°46'1312.7
2014-Aug-19 10:33N 35°27' E 139°47'1111.2
2014-Aug-19 09:33N 35°38' E 139°46'0 0.1
2014-Aug-19 08:29N 35°38' E 139°46'0 0.1
2014-Aug-19 07:33N 35°38' E 139°46'0 0.0
2014-Aug-19 06:30N 35°38' E 139°46'0 0.0
2014-Aug-19 05:20N 35°38' E 139°46'0 0.1
2014-Aug-19 04:30N 35°38' E 139°46'0 0.0
2014-Aug-19 03:33N 35°38' E 139°46'0 0.0
2014-Aug-19 02:20N 35°38' E 139°46'0 0.0
2014-Aug-19 01:27N 35°38' E 139°46'0 0.1
2014-Aug-19 00:30N 35°38' E 139°46'0 0.1
2014-Aug-18 23:34N 35°38' E 139°46'1010.2
2014-Aug-18 22:33N 35°29' E 139°52'1312.6
2014-Aug-18 21:33N 35°18' E 139°45'1313.3
2014-Aug-18 20:33N 35°05' E 139°44'1817.9
2014-Aug-18 19:33N 34°54' E 139°27'1918.4
2014-Aug-18 18:32N 34°40' E 139°12'3417.3
2014-Aug-18 16:33N 34°28' E 138°32'3 0.1
2014-Aug-17 09:25N 34°31' E 138°31'1719.8
2014-Aug-17 08:33N 34°33' E 138°52'1818.6
2014-Aug-17 07:33N 34°43' E 139°10'1818.5
2014-Aug-17 06:33N 34°56' E 139°26'1918.9
2014-Aug-17 05:33N 35°08' E 139°44'1313.1
2014-Aug-17 04:33N 35°21' E 139°42'1515.0
2014-Aug-17 03:33N 35°36' E 139°47'3 2.3
2014-Aug-17 02:22N 35°38' E 139°46'0 0.1
2014-Aug-17 01:31N 35°38' E 139°46'0 0.0
2014-Aug-17 00:28N 35°38' E 139°46'0 0.1
2014-Aug-16 23:31N 35°38' E 139°46'0 0.2
2014-Aug-16 22:33N 35°38' E 139°46'1010.0
2014-Aug-16 21:33N 35°29' E 139°52'1211.9
2014-Aug-16 20:34N 35°19' E 139°44'1111.3
2014-Aug-16 19:33N 35°08' E 139°46'1616.1
2014-Aug-16 18:32N 34°52' E 139°45'1616.8
2014-Aug-16 17:33N 34°54' E 140°05'2017.8
2014-Aug-16 16:26N 35°04' E 140°26'2015.7
2014-Aug-16 15:09N 35°20' E 140°41'1117.0
2014-Aug-16 14:32N 35°29' E 140°47'1918.0
2014-Aug-16 13:29N 35°46' E 140°58'1819.2
2014-Aug-16 12:33N 36°04' E 141°00'  
2014-Aug-12 15:06N 35°30' E 140°49'1119.3
2014-Aug-12 14:33N 35°21' E 140°42'2120.9
2014-Aug-12 13:32N 35°06' E 140°24'2020.8
2014-Aug-12 12:33N 34°56' E 140°02'1515.4
2014-Aug-12 11:33N 34°59' E 139°43'1716.9
2014-Aug-12 10:33N 35°15' E 139°46'1312.9
2014-Aug-12 09:33N 35°28' E 139°49'10 9.8
2014-Aug-12 08:31N 35°38' E 139°46'0 0.0
2014-Aug-12 07:31N 35°38' E 139°46'0 0.0
2014-Aug-12 06:31N 35°38' E 139°46'0 0.0
2014-Aug-12 05:31N 35°38' E 139°46'0 0.0
2014-Aug-12 04:31N 35°38' E 139°46'0 0.0
2014-Aug-12 03:33N 35°38' E 139°46'10 9.8
2014-Aug-12 02:34N 35°29' E 139°52'1413.7
2014-Aug-12 01:34N 35°17' E 139°46'1313.4
2014-Aug-12 00:33N 35°04' E 139°43'2019.9
2014-Aug-11 23:33N 34°51' E 139°24'5 0.2
2014-Aug-10 22:05N 34°49' E 139°18'1218.9
2014-Aug-10 21:28N 34°57' E 139°28'1617.8
2014-Aug-10 20:33N 35°08' E 139°43'1212.4
2014-Aug-10 19:34N 35°20' E 139°42'1514.8
2014-Aug-10 18:34N 35°34' E 139°49'5 4.8
2014-Aug-10 17:30N 35°38' E 139°46'0 0.0
2014-Aug-10 16:30N 35°38' E 139°46'0 0.0
2014-Aug-10 15:18N 35°38' E 139°46'0 0.0
2014-Aug-10 14:24N 35°38' E 139°46'0 0.0
2014-Aug-10 13:12N 35°38' E 139°46'0 0.0
2014-Aug-10 11:18N 35°38' E 139°46'0 0.1
2014-Aug-10 10:30N 35°38' E 139°46'0 0.0
2014-Aug-10 09:30N 35°38' E 139°46'0 0.0
2014-Aug-10 08:24N 35°38' E 139°46'0 0.0
2014-Aug-10 07:30N 35°38' E 139°46'0 0.0
2014-Aug-10 06:24N 35°38' E 139°46'0 0.0
2014-Aug-10 05:21N 35°38' E 139°46'0 0.0
2014-Aug-10 04:30N 35°38' E 139°46'0 0.0
2014-Aug-10 03:33N 35°38' E 139°46'0 0.1
2014-Aug-10 02:33N 35°38' E 139°46'0 0.0
2014-Aug-10 01:30N 35°38' E 139°46'0 0.0
2014-Aug-10 00:24N 35°38' E 139°46'0 0.1
2014-Aug-09 23:33N 35°38' E 139°46'0 0.1
2014-Aug-09 22:33N 35°38' E 139°46'1110.8
2014-Aug-09 21:33N 35°29' E 139°53'0 0.1
2014-Aug-09 20:33N 35°29' E 139°53'  

Dump ship's entire track history